Pullman, WA

11:16 PM PDT on May 20, 2018 (GMT -0700)
Pullman-Moscow Regional

Weather History for KPUW - November, 2013

Change the Weather History Date:

Monday, November 25, 2013

  Actual Average Record
Temperature  
Mean Temperature 33 °F 34 °F  
Max Temperature 47 °F 39 °F 64 °F (1939)
Min Temperature 19 °F 29 °F -5 °F (1993)
Degree Days  
Heating Degree Days 32 31  
Month to date heating degree days 695 678  
Since 1 July heating degree days 1532 1584  
Cooling Degree Days 0 0  
Month to date cooling degree days 0 0  
Year to date cooling degree days 334 213  
Moisture  
Dew Point 24 °F    
Average Humidity 69    
Maximum Humidity 92    
Minimum Humidity 45    
Precipitation  
Precipitation 0.00 in 0.07 in 0.97 in (1990)
Month to date precipitation 1.77 1.91  
Year to date precipitation 13.46 14.94  
Sea Level Pressure  
Sea Level Pressure 30.45 in    
Wind  
Wind Speed 2 mph (East)    
Max Wind Speed 12 mph    
Max Gust Speed 14 mph    
Visibility 8 miles    
Events      
T = Trace of Precipitation, MM = Missing Value Source: NWS Daily Summary

Daily Weather History Graph

Daily Weather History Graph

Search for Another Location

Airport or City:

Astronomy

Nov. 25, 2013 Rise Set
Actual Time 7:05 AM PST 4:05 PM PST
Civil Twilight 6:31 AM PST 4:39 PM PST
Nautical Twilight 5:53 AM PST 5:16 PM PST
Astronomical Twilight 5:17 AM PST 5:53 PM PST
Moon 11:50 PM PST (11/25) 12:09 PM PST (11/25)
Length of Visible Light 10h 07m
Length of Day
9h 00m
Waning Gibbous, 50% of the Moon is Illuminated
Nov 25
Waning Gibbous
Dec 2
New
Dec 9
First Quarter
Dec 17
Full
Dec 25
Last Quarter

Hourly Weather History & Observations

Time (PST) Temp. Windchill Dew Point Humidity Pressure Visibility Wind Dir Wind Speed Gust Speed Precip Events Conditions
12:53 AM 27.0 °F - 23.0 °F 85% 30.42 in 8.0 mi Calm Calm - N/A   Clear
1:53 AM 24.1 °F - 21.0 °F 88% 30.44 in 7.0 mi Calm Calm - N/A   Clear
2:53 AM 24.1 °F - 19.9 °F 84% 30.44 in 8.0 mi Calm Calm - N/A   Clear
3:53 AM 21.9 °F - 19.9 °F 92% 30.46 in 8.0 mi Calm Calm - N/A   Clear
4:53 AM 21.0 °F - 17.1 °F 85% 30.47 in 10.0 mi Calm Calm - N/A   Clear
5:53 AM 19.0 °F - 17.1 °F 92% 30.48 in 10.0 mi Calm Calm - N/A   Clear
6:53 AM 24.1 °F - 19.9 °F 84% 30.49 in 10.0 mi Calm Calm - N/A   Clear
7:53 AM 28.0 °F - 23.0 °F 81% 30.48 in 10.0 mi Calm Calm - N/A   Clear
8:53 AM 34.0 °F 27.2 °F 28.0 °F 79% 30.49 in 10.0 mi East 8.1 mph - N/A   Clear
9:53 AM 37.0 °F 32.4 °F 28.0 °F 70% 30.49 in 10.0 mi East 5.8 mph - N/A   Clear
10:53 AM 42.1 °F 37.7 °F 27.0 °F 55% 30.47 in 10.0 mi East 6.9 mph - N/A   Clear
11:53 AM 45.0 °F 39.3 °F 27.0 °F 49% 30.45 in 10.0 mi ESE 11.5 mph - N/A   Clear
12:53 PM 46.9 °F - 28.0 °F 48% 30.43 in 10.0 mi East 6.9 mph - N/A   Clear
1:53 PM 46.9 °F - 27.0 °F 46% 30.42 in 10.0 mi ESE 6.9 mph - N/A   Clear
2:53 PM 46.9 °F - 28.9 °F 50% 30.42 in 10.0 mi Calm Calm - N/A   Clear
3:53 PM 37.9 °F 32.1 °F 30.9 °F 76% 30.45 in 10.0 mi NW 8.1 mph - N/A   Clear
4:53 PM 34.0 °F - 28.9 °F 82% 30.45 in 9.0 mi Calm Calm - N/A   Clear
5:53 PM 30.9 °F - 27.0 °F 85% 30.46 in 7.0 mi Calm Calm - N/A   Clear
6:53 PM 28.9 °F - 26.1 °F 89% 30.45 in 7.0 mi Calm Calm - N/A   Clear
7:53 PM 28.0 °F - 25.0 °F 88% 30.44 in 6.0 mi Calm Calm - N/A   Clear
8:53 PM 27.0 °F - 24.1 °F 89% 30.43 in 6.0 mi Calm Calm - N/A   Clear
9:53 PM 25.0 °F - 21.9 °F 88% 30.43 in 6.0 mi Calm Calm - N/A   Clear
10:53 PM 26.1 °F - 23.0 °F 88% 30.41 in 7.0 mi Calm Calm - N/A   Clear
11:53 PM 24.1 °F - 21.9 °F 91% 30.41 in 6.0 mi Calm Calm - N/A   Clear